DateTime,F1_A11,F1_S11,BsB_S11,BsG_S11,BsR_S11,BbsB_S11,BbsG_S11,BbsR_S11,BaB_A11,BaG_A11,BaR_A11,T_S11,U_S11,P_S11,T1_A11
2016-07-09T16:51:17Z,4000380,00000600,,,,,,,,,,,,,
2016-07-09T16:53:00Z,4000380,00000600,,,,,,,,,,,,,
2016-07-09T16:54:00Z,4000380,00000600,,,,,,,,,,,,,
2016-07-09T16:55:00Z,4000380,00000600,,,,,,,,,,,,0675.3,
2016-07-09T16:56:00Z,4000380,00000600,,,,,,,,,,20.2,06.8,0675.9,
2016-07-09T16:57:00Z,4000380,40000600,,,,,,,,,,,,0676.6,
2016-07-09T16:58:00Z,4000380,60000600,,,,,,,,,,20.5,06.7,0675.7,
2016-07-09T16:59:00Z,4000380,20000600,,,,,,,,,,20.7,06.6,0675.8,
2016-07-09T17:00:00Z,4000380,20000600,,,,,,,,,,20.8,06.5,0675.7,26.7
2016-07-09T17:01:00Z,4000380,20000600,,,,,,,,,,20.9,06.5,0675.7,26.7
2016-07-09T17:02:00Z,4000380,20000600,,,,,,,,,,21.0,06.4,0675.7,26.7
2016-07-09T17:03:00Z,4000380,60000600,,,,,,,,,,21.1,06.4,0675.7,26.7
2016-07-09T17:04:00Z,4000380,40000600,-000.02,0001.08,0000.55,-000.80,0000.00,0000.18,0000.16,0000.47,0000.28,21.9,06.0,0676.8,26.7
2016-07-09T17:05:00Z,4000380,00000600,0001.45,0000.74,0000.35,-000.06,0000.15,0000.00,0000.30,0000.26,0000.04,22.1,06.0,0676.9,26.7
2016-07-09T17:06:00Z,4000380,00000600,0000.81,0000.76,0000.31,0000.17,-000.02,0000.03,0000.12,0000.47,0000.41,22.2,05.9,0677.0,26.7
2016-07-09T17:07:00Z,4000380,00000600,0001.06,0000.56,0000.69,0000.18,0000.37,0000.15,0000.47,0000.48,-000.18,22.4,05.7,0677.1,26.7
2016-07-09T17:08:00Z,4000380,00000600,0000.70,0000.67,0000.61,0000.17,0000.40,-000.06,0000.46,0000.50,0000.45,22.6,05.5,0676.8,26.7
2016-07-09T17:09:00Z,0000380,00000600,0000.29,0000.78,0000.71,0000.20,-000.06,0000.15,-000.04,0000.37,0000.17,22.7,05.5,0677.2,26.7
2016-07-09T17:10:00Z,0000380,00000600,0000.95,0001.09,0000.66,-000.05,0000.09,0000.19,0000.19,0000.27,0000.00,22.9,05.4,0677.2,26.7
2016-07-09T17:11:00Z,0000380,00000600,0001.19,0001.54,0000.46,-000.25,-000.11,0000.11,0000.32,0000.16,0000.08,23.1,05.3,0677.2,26.7
2016-07-09T17:12:00Z,0000380,00000600,0000.87,0000.36,0000.38,-000.43,-000.02,-000.29,0000.18,0000.08,0000.22,23.3,05.3,0677.4,26.7
2016-07-09T17:13:00Z,0000380,00000600,0001.90,0001.01,0000.08,-000.36,0000.22,-000.22,0000.05,0000.07,-000.01,23.4,05.2,0677.3,26.7
2016-07-09T17:14:00Z,0000380,00000600,0000.71,0000.81,0000.98,-000.45,-000.20,0000.19,0000.15,0000.02,0000.14,23.5,05.2,0677.4,26.7
2016-07-09T17:15:00Z,0000380,00000600,0000.79,0000.76,0000.24,0000.23,0000.20,-000.08,0000.06,0000.11,0000.06,23.6,05.2,0677.4,34.6
2016-07-09T17:16:00Z,0000380,00000600,0001.06,0000.83,0000.83,-000.73,0000.43,0000.37,0000.17,0000.05,-000.29,23.7,05.1,0677.5,34.6
2016-07-09T17:17:00Z,0000380,00000600,0000.47,0001.30,0000.55,-000.11,0000.23,0000.09,0000.23,0000.24,0000.21,23.8,05.1,0677.5,34.6
2016-07-09T17:18:00Z,0000380,00000600,0000.18,0000.83,0000.34,0000.46,-000.08,0000.26,0000.17,0000.07,-000.03,23.9,05.1,0677.6,34.6
2016-07-09T17:19:00Z,0000380,00000600,0000.19,0001.17,0000.79,0000.14,0000.32,-000.08,0000.12,0000.03,0000.35,24.1,04.9,0677.6,34.6
2016-07-09T17:20:00Z,0000380,00000600,0001.31,0000.90,0000.84,-001.07,-000.05,0000.15,0000.16,0000.20,0000.29,24.2,04.9,0677.6,34.6
2016-07-09T17:21:00Z,0000380,00000600,0001.54,0000.46,0000.60,-000.60,-000.09,0000.19,0000.26,0000.22,-000.17,24.3,04.9,0677.6,34.6
2016-07-09T17:22:00Z,0000380,00000600,-000.24,0000.72,0000.83,-000.25,-000.03,0000.28,0000.08,0000.11,0000.19,24.4,04.7,0677.7,34.6
2016-07-09T17:23:00Z,0000380,00000600,0000.93,0001.44,0000.78,0000.17,0000.03,-000.08,0000.19,0000.08,0000.28,24.5,04.8,0677.6,34.6
2016-07-09T17:24:00Z,0000380,00000600,0001.20,0000.78,0000.62,0000.33,-000.45,0000.16,0000.17,0000.18,-000.07,24.6,04.7,0677.7,34.6
2016-07-09T17:25:00Z,0000380,00000600,0001.02,0001.01,0000.60,0000.03,0000.48,0000.16,0000.12,-000.22,-000.04,24.6,04.7,0677.7,34.6
2016-07-09T17:26:00Z,0000380,00000600,0001.66,0001.23,0000.64,0000.28,-000.11,-000.08,0000.06,0000.46,0000.16,24.7,04.7,0677.7,34.6
2016-07-09T17:27:00Z,0000380,00000600,0000.04,0001.48,0000.94,-000.16,0000.17,0000.06,0000.13,-000.02,-000.06,24.8,04.6,0677.8,34.6
2016-07-09T17:28:00Z,0000380,00000600,0001.14,0001.41,0000.90,-000.25,-000.03,0000.06,0000.19,0000.22,0000.18,24.9,04.6,0677.8,34.6
2016-07-09T17:29:00Z,0000380,00000600,0001.63,0000.62,0000.63,0000.23,0000.42,0000.00,0000.19,0000.08,0000.36,25.0,04.6,0677.8,34.6
2016-07-09T17:30:00Z,0000380,00000600,0000.41,0000.98,0000.61,-000.61,-000.23,0000.14,0000.14,0000.18,0000.14,25.1,04.6,0677.8,34.6
2016-07-09T17:31:00Z,0000380,00000600,0001.01,0000.13,0000.86,-000.20,0000.14,-000.05,0000.01,-000.01,0000.07,25.2,04.6,0677.8,34.6
2016-07-09T17:32:00Z,0000380,00000600,0001.51,0000.69,0000.79,-000.19,0000.40,-000.09,0000.09,0000.16,0000.02,25.3,04.6,0677.8,34.6
2016-07-09T17:33:00Z,0000380,00000600,0000.06,0001.20,0000.63,-000.06,0000.22,0000.16,0000.10,-000.06,-000.13,25.4,04.7,0677.9,34.6
2016-07-09T17:34:00Z,0000380,00000600,0000.49,0000.77,0000.59,-000.26,-000.26,0000.09,0000.06,0000.04,-000.10,25.4,04.4,0677.9,34.6
2016-07-09T17:35:00Z,0000380,00000600,0000.50,0000.40,0000.69,0000.02,0000.32,0000.14,0000.07,0000.05,-000.00,25.5,04.4,0677.9,34.6
2016-07-09T17:36:00Z,0000380,00000600,0001.36,0001.02,0000.26,0000.11,0000.48,-000.02,0000.04,0000.07,0000.11,25.5,04.4,0678.0,34.6
2016-07-09T17:37:00Z,0000380,00000600,0000.73,0000.88,0000.71,0000.33,0000.23,-000.05,0000.05,0000.15,0000.16,25.6,04.5,0678.0,34.6
2016-07-09T17:38:00Z,0000380,00000600,0000.91,0000.73,0000.53,-000.25,-000.22,0000.02,0000.13,0000.07,0000.07,25.6,04.3,0678.0,34.6
2016-07-09T17:39:00Z,0000380,00000600,0000.06,0001.23,0000.59,-000.20,0000.11,-000.36,0000.13,0000.23,0000.37,25.7,04.3,0678.0,34.6
2016-07-09T17:40:00Z,0000380,00000600,0000.54,0000.81,0001.04,-000.31,0000.20,-000.02,0000.21,0000.08,-000.29,25.8,04.2,0678.0,34.6
2016-07-09T17:41:00Z,0000380,00000600,-000.36,0000.53,0000.75,0000.19,0000.51,-000.05,0000.27,0000.03,0000.07,25.9,04.1,0678.0,34.6
2016-07-09T17:42:00Z,0000380,00000600,0001.10,0000.41,0001.14,0000.20,0000.23,0000.17,0000.16,0000.14,-000.02,26.0,04.2,0678.0,34.6
2016-07-09T17:43:00Z,0000380,00000600,0000.21,0000.78,0000.73,-000.11,0000.42,-000.31,0000.00,0000.25,0000.17,26.1,04.2,0678.1,34.6
2016-07-09T17:44:00Z,0000380,00000600,0000.87,0000.33,0000.26,0000.42,0000.16,0000.05,0000.10,-000.05,0000.22,26.1,04.2,0678.1,34.6
2016-07-09T17:45:00Z,0000380,00000600,0000.45,0000.66,0000.71,-000.17,0000.47,-000.05,0000.06,-000.05,-000.34,26.2,04.1,0678.1,34.7
2016-07-09T17:46:00Z,0000380,00000600,0001.35,0000.67,0000.48,-000.34,0000.45,0000.16,0000.13,0000.25,0000.47,26.3,04.1,0678.1,34.7
2016-07-09T17:47:00Z,0000380,00000600,0000.06,0000.80,0000.49,-000.40,0000.05,-000.03,0000.00,-000.05,0000.13,26.3,04.1,0678.2,34.7
2016-07-09T17:48:00Z,0000380,00000600,0001.02,0000.85,0000.41,-000.36,0000.28,-000.06,0000.12,-000.07,-000.21,26.4,04.1,0678.2,34.7
2016-07-09T17:49:00Z,0000380,00000600,0000.91,0000.69,0000.76,0000.02,0000.68,-000.02,0000.06,0000.11,-000.07,26.4,04.0,0678.2,34.7
2016-07-09T17:50:00Z,0000380,00000600,0001.11,0001.15,0000.88,-000.81,0000.22,-000.02,0000.01,0000.10,0000.29,26.5,04.0,0678.2,34.7
2016-07-09T17:51:00Z,0000380,00000600,0001.45,0001.02,0000.53,-000.20,0000.20,-000.11,0000.16,0000.14,0000.13,26.5,04.1,0678.2,34.7
2016-07-09T17:52:00Z,0000380,00000600,-000.40,0000.63,0000.68,-000.09,0000.09,0000.02,0000.18,0000.05,-000.32,26.6,04.0,0678.2,34.7
2016-07-09T17:53:00Z,0000380,00000600,0001.38,0000.90,0000.51,-000.12,-000.33,0000.11,-000.04,-000.12,0000.46,26.6,04.1,0678.2,34.7
2016-07-09T17:54:00Z,0000380,00000600,0000.38,0000.95,0000.35,-000.55,0000.67,0000.27,-000.11,-000.04,-000.26,26.6,04.0,0678.2,34.7
2016-07-09T17:55:00Z,0000380,00000600,0001.25,0000.58,0000.42,0000.51,0000.00,0000.22,0000.19,0000.26,0000.15,26.6,03.9,0678.2,34.7
2016-07-09T17:56:00Z,0000380,00000600,0000.59,0001.04,0000.85,-000.20,0000.31,-000.12,-000.03,0000.07,-000.11,26.6,04.0,0678.2,34.7
2016-07-09T17:57:00Z,0000380,40000600,,,,,,,,,,,,0678.2,34.7
2016-07-09T17:58:00Z,0000380,60000600,,,,,,,,,,26.5,03.9,0677.4,34.7
2016-07-09T17:59:00Z,0000380,20000600,,,,,,,,,,26.6,03.9,0677.4,34.7
2016-07-09T18:00:00Z,0000380,20000600,,,,,,,,,,26.7,03.9,0677.4,34.7
2016-07-09T18:01:00Z,0000380,20000600,,,,,,,,,,26.7,03.9,0677.4,34.7
2016-07-09T18:02:00Z,0000380,20000600,,,,,,,,,,26.7,03.9,0677.4,34.7
2016-07-09T18:03:00Z,0000380,60000600,,,,,,,,,,26.7,03.9,0677.4,34.7
2016-07-09T18:04:00Z,0000380,40000600,0001.12,0001.40,0000.47,0000.75,0000.20,-000.33,0000.24,0000.12,0000.08,26.9,03.9,0678.2,34.7
2016-07-09T18:05:00Z,0000380,00000600,0001.33,0000.71,0000.34,0000.56,0000.12,-000.16,-000.03,-000.08,-000.01,26.9,03.9,0678.3,34.7
2016-07-09T18:06:00Z,0000380,00000600,0001.54,0000.36,0000.10,0000.14,0000.02,-000.22,-000.00,-000.01,0000.35,26.8,03.9,0678.3,34.7
2016-07-09T18:07:00Z,0000380,00000600,0000.31,0000.91,0000.39,0000.25,0000.09,-000.09,0000.07,0000.04,-000.43,26.9,03.8,0678.3,34.7
2016-07-09T18:08:00Z,0000380,00000600,0000.26,0000.62,0000.14,0000.44,0000.17,0000.09,0000.06,0000.02,0000.16,26.8,03.8,0678.3,34.7
2016-07-09T18:09:00Z,0000380,00000600,-000.49,0001.08,0000.67,0000.31,0000.06,-000.36,0000.12,0000.13,0000.30,26.9,03.8,0678.3,34.7
2016-07-09T18:10:00Z,0000380,00000600,0001.18,-000.20,0000.31,0000.66,0000.47,-000.39,0000.17,0000.08,-000.01,26.9,03.8,0678.3,34.7
2016-07-09T18:11:00Z,0000380,00000600,0000.36,0001.47,-000.09,0000.51,0000.34,-000.03,-000.04,0000.13,-000.01,26.9,03.8,0678.3,34.7
2016-07-09T18:12:00Z,0000380,00000600,0001.39,0001.46,0000.54,0000.17,0000.39,-000.73,0000.19,0000.24,0000.20,26.9,03.8,0678.3,34.7
2016-07-09T18:13:00Z,0000380,00000600,0001.21,0000.88,0000.14,0000.02,0000.09,-000.28,-000.08,-000.18,-000.04,27.0,03.9,0678.3,34.7
2016-07-09T18:14:00Z,0000380,00000600,0001.56,0001.70,-000.03,0000.59,-000.11,-000.38,0000.31,0000.03,0000.04,27.0,03.9,0678.3,34.7
2016-07-09T18:15:00Z,0000380,00000600,0001.10,0000.55,0000.00,0000.39,0000.16,-000.06,-000.27,0000.07,-000.18,27.0,03.9,0678.4,34.6
2016-07-09T18:16:00Z,0000380,00000600,0002.06,0000.49,0000.48,0000.69,0000.47,-000.06,0000.15,0000.00,0000.29,27.0,03.8,0678.4,34.6
2016-07-09T18:17:00Z,0000380,00000600,0000.52,0000.82,0000.59,-000.36,0000.20,-000.58,0000.10,0000.15,0000.11,27.0,03.8,0678.3,34.6
2016-07-09T18:18:00Z,0000380,00000600,0000.26,0001.45,0000.43,0000.53,0000.19,-000.20,0000.03,0000.01,-000.23,26.9,03.9,0678.4,34.6
2016-07-09T18:19:00Z,0000380,00000600,0000.04,0000.85,0000.65,0000.22,0000.44,-000.33,0000.10,0000.05,0000.40,26.9,03.8,0678.4,34.6
2016-07-09T18:20:00Z,0000380,00000600,0001.03,0000.70,0000.49,0000.20,0000.26,-000.17,0000.03,-000.04,-000.36,27.0,03.9,0678.3,34.6
2016-07-09T18:21:00Z,0000380,00000600,-000.24,0000.89,0000.86,0000.45,0000.25,-000.44,0000.19,0000.33,0000.21,27.0,03.8,0678.3,34.6
2016-07-09T18:22:00Z,0000380,00000600,0001.24,0000.04,0000.41,0000.78,0000.34,-000.09,0000.08,0000.11,-000.02,27.0,03.8,0678.4,34.6
2016-07-09T18:23:00Z,0000380,00000600,0000.47,0001.29,0000.15,0000.61,0000.70,-000.37,0000.03,-000.10,0000.28,27.0,03.8,0678.4,34.6
2016-07-09T18:24:00Z,0000380,00000600,0000.79,0001.29,0000.68,-000.14,0000.25,-000.23,-000.01,-000.02,-000.10,27.0,03.9,0678.4,34.6
2016-07-09T18:25:00Z,0000380,00000600,0001.19,0000.82,0000.30,0000.59,0000.26,-000.09,0000.07,0000.14,0000.30,27.0,03.8,0678.4,34.6
2016-07-09T18:26:00Z,0000380,00000600,0001.04,0001.30,0000.80,0000.52,0000.33,-000.20,0000.21,0000.01,-000.17,27.0,03.9,0678.4,34.6
2016-07-09T18:27:00Z,0000380,00000600,0000.36,0001.39,0000.16,0000.73,-000.14,-000.56,-000.01,0000.10,0000.11,27.0,03.8,0678.4,34.6
2016-07-09T18:28:00Z,0000380,00000600,-000.57,0000.58,0000.54,0000.08,0000.30,-000.20,0000.11,-000.05,-000.13,27.0,04.0,0678.4,34.6
2016-07-09T18:29:00Z,0000380,00000600,0000.00,-000.10,0000.26,-000.06,0000.05,-000.36,-000.07,-000.05,0000.19,27.1,03.9,0678.4,34.6
2016-07-09T18:30:00Z,0000380,00000600,0001.19,0001.04,0000.29,0000.00,0000.09,-000.33,0000.20,0000.14,0000.11,27.1,03.9,0678.4,34.6
2016-07-09T18:31:00Z,0000380,00000600,0000.84,0001.37,0000.48,0000.00,0000.36,-000.09,0000.03,0000.12,-000.05,27.0,03.9,0678.4,34.6
2016-07-09T18:32:00Z,0000380,00000600,0000.77,0000.42,0000.44,-000.02,-000.09,-000.27,-000.02,-000.06,0000.04,27.0,04.0,0678.4,34.6
2016-07-09T18:33:00Z,0000380,00000600,0000.48,0000.48,0000.22,0000.12,0000.36,-000.34,-000.03,0000.15,0000.19,27.0,03.9,0678.3,34.6
2016-07-09T18:34:00Z,0000380,00000600,0001.00,0000.25,0000.48,0000.72,0000.19,-000.13,0000.04,0000.05,-000.06,27.1,03.8,0678.3,34.6
2016-07-09T18:35:00Z,0000380,00000600,0000.39,0000.85,0000.17,0000.23,0000.56,-000.13,0000.07,0000.09,0000.21,27.1,03.8,0678.3,34.6
2016-07-09T18:36:00Z,0000380,00000600,0000.68,0000.69,0000.37,0000.23,0000.28,0000.06,0000.09,-000.06,-000.31,27.1,03.9,0678.3,34.6
2016-07-09T18:37:00Z,0000380,00000600,0000.95,0000.32,0000.17,0000.52,0000.36,-000.45,0000.13,-000.03,0000.11,27.1,03.9,0678.3,34.6
2016-07-09T18:38:00Z,0000380,00000600,0000.59,0001.23,0000.40,0000.14,0000.31,-000.25,-000.04,0000.11,-000.12,27.1,03.8,0678.3,34.6
2016-07-09T18:39:00Z,0000380,00000600,0000.57,0000.96,0000.77,0000.36,0000.19,-000.11,0000.24,0000.21,0000.19,27.1,03.9,0678.3,34.6
2016-07-09T18:40:00Z,0000380,00000600,0001.34,0001.17,0000.32,0000.12,-000.08,-000.02,-000.02,-000.06,0000.26,27.1,03.9,0678.3,34.6
2016-07-09T18:41:00Z,0000380,00000600,0000.12,0000.67,-000.20,0000.31,0000.19,-000.52,0000.13,0000.10,-000.20,27.2,03.8,0678.3,34.6
2016-07-09T18:42:00Z,0000380,00000600,0000.76,0000.19,0000.09,0000.80,0000.19,-000.53,-000.04,0000.23,0000.14,27.2,03.7,0678.3,34.6
2016-07-09T18:43:00Z,0000380,00000600,0000.80,0000.62,0000.29,-000.02,0000.34,-000.47,0000.31,-000.05,-000.14,27.2,03.8,0678.3,34.6
2016-07-09T18:44:00Z,0000380,00000600,0001.44,0000.80,0000.17,0000.05,0000.08,-000.63,-000.09,0000.01,0000.43,27.2,03.7,0678.3,34.6
2016-07-09T18:45:00Z,0000380,00000600,-000.14,0001.01,0000.12,0000.33,0000.47,-000.30,-000.01,0000.21,-000.05,27.2,03.7,0678.3,34.6
2016-07-09T18:46:00Z,0000380,00000600,0001.47,0001.13,0000.47,-000.02,-000.19,-000.66,0000.07,-000.06,-000.06,27.3,03.7,0678.3,34.6
2016-07-09T18:47:00Z,0000380,00000600,0000.75,0000.47,0000.69,-000.13,0000.25,-000.28,-000.08,0000.02,0000.27,27.3,03.8,0678.3,34.6
2016-07-09T18:48:00Z,0000380,00000600,0000.62,0000.30,0000.02,0000.33,0000.34,-000.28,0000.30,-000.07,-000.50,27.3,03.8,0678.4,34.6
2016-07-09T18:49:00Z,0000380,00000600,-000.86,0000.11,0000.20,0000.28,0000.39,0000.09,-000.13,0000.07,0000.44,27.3,03.9,0678.4,34.6
2016-07-09T18:50:00Z,0000380,00010600,0000.96,0000.84,0000.16,-000.02,0000.06,-000.28,0000.12,0000.17,0000.31,27.3,03.8,0678.3,34.6
2016-07-09T18:51:00Z,0000380,00000600,0000.34,0000.89,0000.22,0000.11,-000.11,-000.02,0000.04,0000.00,-000.61,27.3,03.8,0678.4,34.6
2016-07-09T18:52:00Z,0000380,00000600,0000.49,0000.34,0000.70,0000.36,0000.16,0000.05,0000.06,0000.01,0000.30,27.3,03.8,0678.4,34.6
2016-07-09T18:53:00Z,0000380,00000600,0000.51,0000.30,0000.41,0000.28,-000.08,-000.13,0000.11,0000.00,0000.17,27.3,03.8,0678.4,34.6
2016-07-09T18:54:00Z,0000380,00000600,0000.60,0000.54,0000.52,0000.05,0000.37,-000.16,0000.05,0000.08,-000.03,27.3,03.7,0678.4,34.6
2016-07-09T18:55:00Z,0000380,00000600,0000.10,0000.53,0000.23,0000.00,-000.12,0000.02,0000.13,0000.09,-000.10,27.3,03.8,0678.4,34.6
2016-07-09T18:56:00Z,0000380,00000600,0000.94,0000.73,-000.10,0000.70,0000.14,-000.25,-000.05,0000.07,0000.07,27.3,03.8,0678.4,34.6
2016-07-09T18:57:00Z,0000380,40000600,,,,,,,,,,,,0678.3,34.6
2016-07-09T18:58:00Z,0000380,60000600,,,,,,,,,,27.2,03.8,0677.6,34.6
2016-07-09T18:59:00Z,0000380,20000600,,,,,,,,,,27.2,03.8,0677.6,34.6
2016-07-09T19:00:00Z,0000380,20000600,,,,,,,,,,27.2,03.9,0677.6,34.6
2016-07-09T19:01:00Z,0000380,20000600,,,,,,,,,,27.2,03.9,0677.6,34.6
2016-07-09T19:02:00Z,0000380,20000600,,,,,,,,,,27.2,03.9,0677.6,34.6
2016-07-09T19:03:00Z,0000380,60000600,,,,,,,,,,27.2,03.9,0677.6,34.6
2016-07-09T19:04:00Z,0000380,40000600,-000.42,0000.96,0001.35,-000.25,0000.34,-000.03,0000.06,0000.07,0000.12,27.3,03.8,0678.3,34.6
2016-07-09T19:05:00Z,0000380,00000600,0000.62,0001.08,0000.52,0000.69,-000.08,-000.25,-000.04,-000.07,0000.07,27.3,03.8,0678.4,34.6
2016-07-09T19:06:00Z,0000380,00000600,-000.11,0001.05,0000.57,0000.19,0000.11,-000.09,0000.21,0000.02,-000.32,27.3,03.9,0678.4,34.6
2016-07-09T19:07:00Z,0000380,00000600,0000.85,0000.42,0000.35,0000.03,-000.22,-000.28,-000.10,0000.05,-000.01,27.3,03.8,0678.4,34.6
2016-07-09T19:08:00Z,0000388,00000608,0001.77,0000.25,0000.56,-000.52,-000.16,0000.34,-000.03,0000.04,0000.37,27.3,03.7,0678.4,34.6
2016-07-09T19:09:00Z,0000388,00000608,0000.20,0000.29,-000.04,-000.50,0000.34,0000.11,-000.02,-000.02,-000.35,27.3,03.7,0678.4,34.6
2016-07-09T19:10:00Z,0000388,00000608,0001.27,0001.06,0000.37,-000.41,-000.20,-000.30,0000.13,0000.01,0000.09,27.3,03.7,0678.5,34.6
2016-07-09T19:11:00Z,0000388,00000608,0000.61,-000.24,0000.47,0000.25,0000.26,0000.17,0000.15,0000.07,0000.10,27.3,03.7,0678.4,34.6
2016-07-09T19:12:00Z,0000388,00000608,-000.26,0000.60,0000.73,0000.11,-000.02,-000.08,0000.09,0000.01,-000.00,27.3,03.7,0678.4,34.6
2016-07-09T19:13:00Z,0000388,00000608,-000.76,0000.40,0000.24,0000.73,0000.03,-000.14,0000.02,0000.22,0000.34,27.3,03.7,0678.4,34.6
2016-07-09T19:14:00Z,0000388,00000608,0000.57,0000.32,0000.26,0000.58,0000.08,-000.31,-000.05,-000.20,-000.41,27.3,03.7,0678.4,34.6
2016-07-09T19:15:00Z,0000388,00000608,0000.46,0000.04,0000.28,0000.22,0000.08,0000.31,0000.02,0000.18,0000.25,27.3,03.7,0678.4,34.6
2016-07-09T19:16:00Z,0000388,00000608,0000.13,0001.21,0000.10,-000.02,0000.42,0000.25,0000.02,-000.08,0000.09,27.3,03.7,0678.4,34.6
2016-07-09T19:17:00Z,0000388,00000608,0000.87,0000.70,0000.61,-000.25,-000.08,-000.06,0000.13,0000.11,-000.04,27.3,03.7,0678.4,34.6
2016-07-09T19:18:00Z,0000388,00000608,0000.56,0000.84,0000.03,-000.48,-000.05,-000.25,0000.05,0000.03,0000.17,27.3,03.8,0678.5,34.6
2016-07-09T19:19:00Z,0000388,00000608,-000.63,0000.65,0000.16,0000.05,-000.31,-000.23,-000.06,-000.05,-000.14,27.3,03.8,0678.4,34.6
2016-07-09T19:20:00Z,0000388,00000608,0000.96,0000.57,0000.56,0000.17,0000.03,0000.19,0000.23,0000.11,0000.15,27.3,03.7,0678.4,34.6
2016-07-09T19:21:00Z,0000388,00000608,0001.12,0001.04,0000.62,0000.77,0000.20,0000.16,0000.12,0000.18,0000.16,27.3,03.8,0678.4,34.6
2016-07-09T19:22:00Z,0000388,00000608,-001.41,0001.08,0000.34,0000.23,-000.17,0000.38,-000.01,-000.04,-000.32,27.3,03.8,0678.4,34.6
2016-07-09T19:23:00Z,0000388,00000608,0000.84,0000.96,0000.06,0000.08,0000.17,0000.16,0000.03,0000.02,0000.30,27.3,03.7,0678.4,34.6
2016-07-09T19:24:00Z,0000388,00000608,0001.01,0000.26,0000.30,0000.22,0000.02,0000.17,0000.08,0000.13,0000.14,27.4,03.7,0678.5,34.6
2016-07-09T19:25:00Z,0000388,00000608,0001.36,0000.44,0000.69,-000.50,0000.00,0000.19,-000.16,-000.08,-000.21,27.4,03.9,0678.4,34.6
2016-07-09T19:26:00Z,0000388,00000608,0000.88,0000.24,0000.66,0000.48,-000.11,0000.11,0000.14,-000.02,0000.28,27.4,03.8,0678.5,34.6
2016-07-09T19:27:00Z,0000388,00000608,0000.17,0000.44,0000.20,0000.41,-000.08,0000.09,0000.05,0000.13,-000.13,27.4,03.7,0678.5,34.6
2016-07-09T19:28:00Z,0000388,00000608,-000.25,0000.83,0000.50,0000.36,0000.08,0000.02,0000.02,0000.19,-000.09,27.4,03.8,0678.5,34.6
2016-07-09T19:29:00Z,0000380,00000600,0000.61,0000.70,0000.84,0000.53,0000.05,0000.14,0000.11,-000.12,0000.08,27.4,03.8,0678.5,34.6
2016-07-09T19:30:00Z,0000380,00000600,0000.27,0000.70,0000.27,0000.58,0000.09,-000.20,-000.20,-000.00,-000.10,27.4,03.7,0678.5,34.6
2016-07-09T19:31:00Z,0000380,00000600,0000.65,0000.79,0000.24,0000.63,0000.20,0000.03,0000.25,0000.07,0000.19,27.4,03.8,0678.5,34.6
2016-07-09T19:32:00Z,0000380,00000600,0001.68,0001.11,0000.92,0000.17,-000.12,-000.08,0000.13,0000.15,0000.07,27.4,03.8,0678.5,34.6
2016-07-09T19:33:00Z,0000380,00000600,0000.87,0000.92,0000.43,0000.34,-000.02,0000.31,-000.17,-000.25,-000.04,27.5,03.9,0678.5,34.6
2016-07-09T19:34:00Z,0000380,00000600,0001.19,0000.80,0000.50,0000.80,-000.25,-000.06,0000.09,0000.12,0000.02,27.5,03.8,0678.5,34.6
2016-07-09T19:35:00Z,0000380,00000600,0000.48,0000.27,0000.21,0000.77,-000.40,0000.06,-000.04,0000.10,0000.03,27.5,03.9,0678.5,34.6
2016-07-09T19:36:00Z,0000380,00000600,0000.66,0000.38,0000.26,0000.09,-000.05,-000.13,0000.10,-000.02,0000.12,27.5,03.7,0678.5,34.6
2016-07-09T19:37:00Z,0000380,00000600,0001.09,0001.14,0000.41,0000.48,0000.23,-000.09,0000.19,0000.15,0000.05,27.4,03.7,0678.5,34.6
2016-07-09T19:38:00Z,0000380,00000600,0000.66,0000.58,0000.74,0000.08,0000.09,-000.02,-000.05,0000.06,-000.24,27.5,03.8,0678.5,34.6
2016-07-09T19:39:00Z,0000380,00000600,0000.50,0000.62,0000.30,0000.39,-000.31,0000.20,-000.01,-000.12,0000.07,27.5,03.8,0678.5,34.6
2016-07-09T19:40:00Z,0000380,00000600,0000.27,0001.14,0000.05,0000.42,0000.22,0000.09,0000.06,0000.16,0000.09,27.5,03.8,0678.5,34.6
2016-07-09T19:41:00Z,0000380,00000600,0000.25,0000.40,0000.84,-000.41,-000.03,0000.27,0000.11,0000.03,0000.17,27.5,03.8,0678.5,34.6
2016-07-09T19:42:00Z,0000380,00000600,0000.15,0000.89,0000.49,0000.36,0000.08,0000.05,-000.08,0000.12,0000.01,27.5,03.7,0678.5,34.6
2016-07-09T19:43:00Z,0000380,00000600,-000.42,0000.77,0000.69,0000.13,0000.36,0000.17,0000.16,-000.12,-000.02,27.5,03.8,0678.5,34.6
2016-07-09T19:44:00Z,0000380,00000600,0000.27,0001.29,0000.27,0000.39,0000.34,0000.25,-000.03,0000.06,-000.14,27.5,03.8,0678.5,34.6
2016-07-09T19:45:00Z,0000380,00000600,0000.83,0001.76,0000.60,0000.06,0000.08,0000.25,0000.08,0000.08,0000.09,27.5,03.7,0678.5,34.6
2016-07-09T19:46:00Z,0000380,00000600,0000.24,0000.71,0000.66,0000.02,0000.06,0000.05,0000.10,-000.07,0000.13,27.5,03.9,0678.5,34.6
2016-07-09T19:47:00Z,0000380,00000600,0001.95,0000.50,0000.67,-000.33,-000.08,0000.00,-000.05,0000.08,-000.05,27.5,04.0,0678.5,34.6
2016-07-09T19:48:00Z,0000380,00000600,0000.45,0001.11,0000.40,0000.17,0000.59,-000.20,0000.13,-000.11,0000.04,27.5,03.8,0678.5,34.6
2016-07-09T19:49:00Z,0000380,00000600,0001.09,0000.39,0000.72,0000.09,0000.19,0000.39,-000.05,0000.06,0000.01,27.5,03.8,0678.5,34.6
2016-07-09T19:50:00Z,0000380,00000600,0000.56,0000.61,0000.23,-000.14,0000.50,-000.13,0000.03,0000.10,0000.18,27.4,03.8,0678.5,34.6
2016-07-09T19:51:00Z,0000380,00000600,0000.68,0000.42,0000.45,0000.86,0000.11,0000.14,0000.11,-000.01,0000.01,27.4,03.9,0678.5,34.6
2016-07-09T19:52:00Z,0000380,00000600,0000.06,0000.36,0000.42,0000.47,-000.28,-000.03,-000.01,0000.17,-000.32,27.5,03.9,0678.5,34.6
2016-07-09T19:53:00Z,0000380,00000600,0000.55,0000.63,0000.66,-000.14,-000.19,0000.11,0000.24,0000.04,0000.31,27.5,03.9,0678.5,34.6
2016-07-09T19:54:00Z,0000380,00000600,0000.70,0000.97,0000.65,0000.56,0000.39,0000.11,-000.19,-000.05,-000.00,27.5,03.9,0678.5,34.6
2016-07-09T19:55:00Z,0000380,00000600,0000.11,0000.78,0000.56,-000.22,-000.08,-000.05,-000.08,-000.03,-000.07,27.5,03.9,0678.5,34.6
2016-07-09T19:56:00Z,0000380,00000600,0000.97,0000.86,0000.80,0000.27,0000.28,0000.14,0000.28,0000.05,0000.16,27.5,03.9,0678.5,34.6
2016-07-09T19:57:00Z,0000380,40000600,,,,,,,,,,,,0678.6,34.6
2016-07-09T19:58:00Z,0000380,60000600,,,,,,,,,,27.3,03.8,0677.7,34.6
2016-07-09T19:59:00Z,0000380,20000600,,,,,,,,,,27.3,03.8,0677.7,34.6
2016-07-09T20:00:00Z,0000380,20000600,,,,,,,,,,27.3,03.8,0677.7,34.5
2016-07-09T20:01:00Z,0000380,20000600,,,,,,,,,,27.3,03.8,0677.7,34.5
2016-07-09T20:02:00Z,0000380,20000600,,,,,,,,,,27.3,03.8,0677.7,34.5
2016-07-09T20:03:00Z,0000380,60000600,,,,,,,,,,27.4,03.8,0677.7,34.5
2016-07-09T20:04:00Z,0000380,40000600,0000.66,0000.87,0001.41,0000.12,0000.03,0000.42,0000.17,0000.12,0000.12,27.3,03.8,0678.4,34.5
2016-07-09T20:05:00Z,0000380,00000600,-000.10,-000.12,0000.83,-000.31,0000.28,0000.03,-000.03,0000.13,-000.28,27.3,03.8,0678.5,34.5
2016-07-09T20:06:00Z,0000380,00000600,0000.17,0000.46,0000.74,-000.14,0000.62,-000.03,0000.11,0000.12,0000.28,27.3,03.9,0678.5,34.5
2016-07-09T20:07:00Z,0000380,00000600,-000.11,0000.72,0000.71,0000.03,-000.03,0000.09,0000.12,0000.13,0000.16,27.3,04.0,0678.5,34.5
2016-07-09T20:08:00Z,0000380,00000600,0000.79,0000.94,0000.91,0000.98,0000.34,0000.38,0000.08,0000.02,-000.29,27.3,03.9,0678.5,34.5